When you browse on this site, cookies collect data to enhance your experience and personalize the content and advertising you see.
Visit our Privacy Policy to learn more. By continuing to use the site, you agree to this use of cookies and data.
  • In United Kingdom
  • List of Countries
  • For 7 days
  • Water Temperature
  • Satellite Maps
  • Weather Map
  • Weather Widgets
  • user-avatar
    Login

    Hourly Weather Ayacucho

    Today, 20 July, Saturday

    Time Temperature Precipitation Wind Pressure Humidity
    00:00 +10°C° 0 mm 1 mps 540 mmHg 84%
    01:00 +9°C° 0 mm 1 mps 539 mmHg 85%
    02:00 +9°C° 0 mm 1 mps 539 mmHg 86%
    03:00 +8°C° 0 mm 0 mps 539 mmHg 86%
    04:00 +7°C° 0 mm 0 mps 539 mmHg 86%
    05:00 +8°C° 0 mm 0 mps 539 mmHg 85%
    06:00 +8°C° 0 mm 0 mps 540 mmHg 83%
    07:00 +8°C° 0 mm 0 mps 540 mmHg 82%
    08:00 +11°C° 0 mm 1 mps 541 mmHg 73%
    09:00 +13°C° 0 mm 1 mps 542 mmHg 64%
    10:00 +15°C° 0 mm 1 mps 543 mmHg 54%
    11:00 +16°C° 0 mm 1 mps 543 mmHg 50%
    12:00 +18°C° 0 mm 1 mps 543 mmHg 46%
    13:00 +18°C° 0 mm 2 mps 543 mmHg 42%
    14:00 +18°C° 0 mm 2 mps 543 mmHg 42%
    15:00 +18°C° 0 mm 2 mps 542 mmHg 42%
    16:00 +18°C° 0 mm 3 mps 542 mmHg 43%
    17:00 +17°C° 0.1 mm 2 mps 542 mmHg 52%
    18:00 +15°C° 0.1 mm 2 mps 541 mmHg 61%
    19:00 +13°C° 0.1 mm 1 mps 541 mmHg 70%
    20:00 +12°C° 0 mm 1 mps 541 mmHg 71%
    21:00 +12°C° 0 mm 1 mps 541 mmHg 73%
    22:00 +10°C° 0 mm 0 mps 540 mmHg 75%
    23:00 +9°C° 0 mm 0 mps 540 mmHg 77%

    Tomorrow, 21 July, Sunday

    Time Temperature Precipitation Wind Pressure Humidity
    00:00 +9°C° 0 mm 0 mps 540 mmHg 79%
    01:00 +8°C° 0 mm 0 mps 539 mmHg 81%
    02:00 +8°C° 0 mm 0 mps 539 mmHg 82%
    03:00 +8°C° 0 mm 0 mps 539 mmHg 83%
    04:00 +7°C° 0 mm 0 mps 538 mmHg 85%
    05:00 +8°C° 0 mm 0 mps 539 mmHg 83%
    06:00 +9°C° 0 mm 0 mps 540 mmHg 82%
    07:00 +9°C° 0 mm 0 mps 540 mmHg 81%
    08:00 +11°C° 0 mm 0 mps 541 mmHg 71%
    09:00 +14°C° 0 mm 1 mps 542 mmHg 62%
    10:00 +16°C° 0 mm 1 mps 543 mmHg 53%
    11:00 +17°C° 0 mm 2 mps 543 mmHg 48%
    12:00 +18°C° 0 mm 2 mps 543 mmHg 43%
    13:00 +19°C° 0 mm 2 mps 543 mmHg 39%
    14:00 +19°C° 0.1 mm 2 mps 543 mmHg 39%
    15:00 +19°C° 0.1 mm 2 mps 543 mmHg 40%
    16:00 +20°C° 0.1 mm 3 mps 542 mmHg 40%
    17:00 +18°C° 0.1 mm 2 mps 542 mmHg 50%
    18:00 +16°C° 0.1 mm 2 mps 541 mmHg 59%
    19:00 +14°C° 0.1 mm 2 mps 541 mmHg 69%
    20:00 +13°C° 0 mm 1 mps 541 mmHg 72%
    21:00 +12°C° 0 mm 1 mps 541 mmHg 74%
    22:00 +11°C° 0 mm 1 mps 540 mmHg 77%
    23:00 +11°C° 0 mm 1 mps 540 mmHg 79%

    Day after tomorrow, 22 July, Monday

    Time Temperature Precipitation Wind Pressure Humidity
    00:00 +9°C° 0 mm 0 mps 540 mmHg 81%
    01:00 +9°C° 0 mm 0 mps 539 mmHg 82%
    02:00 +8°C° 0 mm 0 mps 539 mmHg 84%
    03:00 +8°C° 0 mm 0 mps 538 mmHg 85%
    04:00 +7°C° 0 mm 0 mps 538 mmHg 86%
    05:00 +8°C° 0 mm 0 mps 539 mmHg 85%
    06:00 +9°C° 0 mm 0 mps 539 mmHg 85%
    07:00 +9°C° 0 mm 0 mps 540 mmHg 84%
    08:00 +11°C° 0 mm 0 mps 541 mmHg 74%
    09:00 +14°C° 0 mm 1 mps 542 mmHg 64%
    10:00 +16°C° 0 mm 1 mps 543 mmHg 55%
    11:00 +18°C° 0.1 mm 1 mps 543 mmHg 50%
    12:00 +18°C° 0.1 mm 2 mps 543 mmHg 46%
    13:00 +19°C° 0.1 mm 2 mps 543 mmHg 42%
    14:00 +19°C° 0.1 mm 2 mps 543 mmHg 42%
    15:00 +19°C° 0.1 mm 3 mps 542 mmHg 43%
    16:00 +19°C° 0.1 mm 3 mps 542 mmHg 44%
    17:00 +17°C° 0.2 mm 3 mps 541 mmHg 55%
    18:00 +15°C° 0.2 mm 2 mps 541 mmHg 65%
    19:00 +13°C° 0.2 mm 2 mps 540 mmHg 76%
    20:00 +13°C° 0.1 mm 1 mps 540 mmHg 78%
    21:00 +12°C° 0.1 mm 1 mps 540 mmHg 80%
    22:00 +11°C° 0.1 mm 1 mps 540 mmHg 82%
    23:00 +11°C° 0 mm 1 mps 540 mmHg 84%

    23 July, Tuesday

    Time Temperature Precipitation Wind Pressure Humidity
    00:00 +10°C° 0 mm 1 mps 540 mmHg 86%
    01:00 +10°C° 0 mm 1 mps 539 mmHg 88%
    02:00 +10°C° 0 mm 1 mps 539 mmHg 89%
    03:00 +8°C° 0 mm 0 mps 539 mmHg 90%
    04:00 +8°C° 0 mm 0 mps 538 mmHg 92%
    05:00 +9°C° 0 mm 0 mps 539 mmHg 90%
    06:00 +9°C° 0 mm 0 mps 539 mmHg 89%
    07:00 +10°C° 0 mm 0 mps 540 mmHg 87%
    08:00 +12°C° 0 mm 1 mps 541 mmHg 80%
    09:00 +13°C° 0 mm 1 mps 542 mmHg 72%
    10:00 +15°C° 0 mm 1 mps 542 mmHg 65%
    11:00 +16°C° 0.2 mm 2 mps 542 mmHg 60%
    12:00 +17°C° 0.2 mm 2 mps 542 mmHg 54%
    13:00 +19°C° 0.2 mm 2 mps 542 mmHg 49%
    14:00 +19°C° 0.3 mm 3 mps 542 mmHg 49%
    15:00 +19°C° 0.3 mm 3 mps 542 mmHg 50%
    16:00 +19°C° 0.3 mm 3 mps 542 mmHg 51%
    17:00 +17°C° 0.7 mm 3 mps 541 mmHg 60%
    18:00 +15°C° 0.7 mm 2 mps 541 mmHg 70%
    19:00 +13°C° 0.7 mm 2 mps 540 mmHg 79%
    20:00 +12°C° 0 mm 2 mps 540 mmHg 82%
    21:00 +12°C° 0 mm 1 mps 540 mmHg 85%
    22:00 +11°C° 0 mm 1 mps 540 mmHg 87%
    23:00 +11°C° 0 mm 1 mps 540 mmHg 88%

    24 July, Wednesday

    Time Temperature Precipitation Wind Pressure Humidity
    00:00 +11°C° 0 mm 1 mps 540 mmHg 90%
    01:00 +10°C° 0 mm 0 mps 540 mmHg 91%
    02:00 +10°C° 0.1 mm 0 mps 540 mmHg 90%
    03:00 +11°C° 0.1 mm 1 mps 540 mmHg 88%
    04:00 +11°C° 0.1 mm 1 mps 539 mmHg 87%
    05:00 +11°C° 0.1 mm 1 mps 540 mmHg 87%
    06:00 +11°C° 0.1 mm 1 mps 540 mmHg 87%
    07:00 +10°C° 0.1 mm 0 mps 540 mmHg 87%
    08:00 +13°C° 0.1 mm 1 mps 541 mmHg 78%
    09:00 +15°C° 0.1 mm 1 mps 542 mmHg 68%
    10:00 +16°C° 0.1 mm 1 mps 543 mmHg 58%
    11:00 +17°C° 0.1 mm 2 mps 543 mmHg 54%
    12:00 +18°C° 0.1 mm 2 mps 543 mmHg 49%
    13:00 +19°C° 0.1 mm 2 mps 543 mmHg 45%
    14:00 +19°C° 0.1 mm 2 mps 542 mmHg 46%
    15:00 +19°C° 0.1 mm 2 mps 542 mmHg 46%
    16:00 +19°C° 0.1 mm 2 mps 542 mmHg 47%
    17:00 +17°C° 0.2 mm 2 mps 541 mmHg 57%
    18:00 +15°C° 0.2 mm 2 mps 541 mmHg 68%
    19:00 +14°C° 0.2 mm 2 mps 540 mmHg 78%
    20:00 +13°C° 0.1 mm 2 mps 541 mmHg 81%
    21:00 +13°C° 0.1 mm 1 mps 541 mmHg 84%
    22:00 +12°C° 0.1 mm 1 mps 541 mmHg 87%
    23:00 +11°C° 0.1 mm 0 mps 540 mmHg 87%

    25 July, Thursday

    Time Temperature Precipitation Wind Pressure Humidity
    00:00 +10°C° 0.1 mm 0 mps 540 mmHg 88%
    01:00 +10°C° 0.1 mm 0 mps 540 mmHg 89%
    02:00 +10°C° 0 mm 0 mps 539 mmHg 89%
    03:00 +9°C° 0 mm 0 mps 539 mmHg 90%
    04:00 +9°C° 0 mm 0 mps 539 mmHg 90%
    05:00 +9°C° 0 mm 0 mps 539 mmHg 89%
    06:00 +10°C° 0 mm 0 mps 540 mmHg 88%
    07:00 +10°C° 0 mm 0 mps 540 mmHg 87%
    08:00 +12°C° 0 mm 1 mps 541 mmHg 80%
    09:00 +14°C° 0 mm 1 mps 542 mmHg 73%
    10:00 +15°C° 0 mm 1 mps 543 mmHg 66%
    11:00 +16°C° 0.1 mm 1 mps 543 mmHg 62%
    12:00 +18°C° 0.1 mm 1 mps 542 mmHg 57%
    13:00 +19°C° 0.1 mm 1 mps 542 mmHg 53%
    14:00 +18°C° 0.2 mm 2 mps 542 mmHg 54%
    15:00 +18°C° 0.2 mm 2 mps 542 mmHg 55%
    16:00 +18°C° 0.2 mm 3 mps 542 mmHg 56%
    17:00 +16°C° 0.7 mm 2 mps 541 mmHg 65%
    18:00 +15°C° 0.7 mm 2 mps 541 mmHg 75%
    19:00 +13°C° 0.7 mm 2 mps 541 mmHg 84%
    20:00 +13°C° 0.8 mm 1 mps 541 mmHg 84%
    21:00 +13°C° 0.8 mm 1 mps 542 mmHg 84%
    22:00 +13°C° 0.8 mm 1 mps 542 mmHg 84%
    23:00 +12°C° 0.2 mm 1 mps 542 mmHg 84%
    Show more